GW1348 Weather Reports


time (UTC)temp
C
wind
direction
speed
KPH
gust
KPH
rain 1hr
cm
rain 24hr
cm
rain mn
cm
humidity
%
barometer
mb
20260507142031 9 349 3.2 8.0 0.00 0.00 0.00 56 1017.2
20260507141540 9 57 1.6 11.3 0.00 0.00 0.00 57 1017.2
20260507141032 8 88 3.2 20.9 0.00 0.00 0.00 56 1017.3
20260507140529 8 88 3.2 20.9 0.00 0.00 0.00 56 1017.2
20260507140046 8 158 4.8 20.9 0.00 0.00 0.00 56 1017.1
20260507135529 9 120 3.2 19.3 0.00 0.00 0.00 55 1017.1
20260507135029 8 202 4.8 9.7 0.00 0.00 0.00 58 1017.1
20260507134545 8 27 1.6 12.9 0.00 0.00 0.00 58 1017.1
20260507134031 8 60 3.2 12.9 0.00 0.00 0.00 58 1017.0
20260507133531 9 349 3.2 6.4 0.00 0.00 0.00 58 1016.8
20260507133048 9 107 1.6 8.0 0.00 0.00 0.00 61 1017.1
20260507132533 8 25 1.6 11.3 0.00 0.00 0.00 61 1017.1
20260507132030 8 335 0.0 11.3 0.00 0.00 0.00 62 1017.1
20260507131541 8 200 3.2 11.3 0.00 0.00 0.00 61 1017.1
20260507131030 8 82 0.0 11.3 0.00 0.00 0.00 64 1017.0
20260507130533 8 43 1.6 8.0 0.00 0.00 0.00 66 1016.8
20260507130043 7 63 1.6 8.0 0.00 0.00 0.00 67 1016.9
20260507125531 7 0 1.6 11.3 0.00 0.00 0.00 67 1017.0
20260507125029 7 8 1.6 11.3 0.00 0.00 0.00 68 1016.8
20260507124540 7 155 3.2 12.9 0.00 0.00 0.00 65 1016.8
20260507124030 8 46 3.2 12.9 0.00 0.00 0.00 59 1016.6
20260507123529 7 131 3.2 9.7 0.00 0.00 0.00 57 1016.8
20260507123044 7 112 3.2 9.7 0.00 0.00 0.00 58 1016.7
20260507122535 7 56 4.8 11.3 0.00 0.00 0.00 59 1016.6
20260507122029 7 126 1.6 11.3 0.00 0.00 0.00 59 1016.6
20260507121542 7 58 3.2 8.0 0.00 0.00 0.00 59 1016.7
20260507121030 7 44 1.6 6.4 0.00 0.00 0.00 59 1016.6
20260507120530 7 141 3.2 6.4 0.00 0.00 0.00 62 1016.6
20260507120041 7 72 1.6 6.4 0.00 0.00 0.00 57 1016.4
20260507115532 7 142 0.0 8.0 0.00 0.00 0.00 60 1016.5
20260507115030 7 0 0.0 9.7 0.00 0.00 0.00 61 1016.5
20260507114559 7 26 3.2 9.7 0.00 0.00 0.00 60 1016.5
20260507114030 7 134 1.6 9.7 0.00 0.00 0.00 61 1016.4
20260507113531 7 26 1.6 12.9 0.00 0.00 0.00 60 1016.4
20260507113104 7 0 1.6 12.9 0.00 0.00 0.00 60 1016.4
20260507112532 7 58 3.2 12.9 0.00 0.00 0.00 59 1016.3
20260507112032 7 79 1.6 20.9 0.00 0.00 0.00 57 1016.3
20260507111545 7 123 3.2 20.9 0.00 0.00 0.00 54 1016.2
20260507111029 7 79 4.8 20.9 0.00 0.00 0.00 54 1016.1
20260507110529 7 60 0.0 6.4 0.00 0.00 0.00 61 1016.0
20260507110047 7 76 3.2 8.0 0.00 0.00 0.00 57 1015.9
20260507105530 7 285 1.6 8.0 0.00 0.00 0.00 56 1015.8
20260507105032 7 46 1.6 6.4 0.00 0.00 0.00 54 1015.8
20260507104543 7 0 0.0 8.0 0.00 0.00 0.00 55 1015.9
20260507104031 6 0 1.6 8.0 0.00 0.00 0.00 58 1015.9
20260507103531 6 167 0.0 8.0 0.00 0.00 0.00 62 1015.8
20260507103053 6 29 3.2 9.7 0.00 0.00 0.00 65 1015.8
20260507102530 6 23 3.2 9.7 0.00 0.00 0.00 61 1015.7
20260507102031 6 34 1.6 9.7 0.00 0.00 0.00 56 1015.7
20260507101547 7 333 0.0 9.7 0.00 0.00 0.00 56 1015.7
20260507101032 7 18 1.6 9.7 0.00 0.00 0.00 55 1015.6
20260507100529 7 48 3.2 9.7 0.00 0.00 0.00 55 1015.5
20260507100045 6 293 3.2 9.7 0.00 0.00 0.00 57 1015.5
20260507095529 5 108 0.0 4.8 0.00 0.00 0.00 71 1015.4
20260507095120 5 0 1.6 9.7 0.00 0.00 0.00 70 1015.4
20260507094543 5 59 1.6 9.7 0.00 0.00 0.00 71 1015.5
20260507094029 5 103 1.6 6.4 0.00 0.00 0.00 70 1015.4
20260507093529 5 0 1.6 4.8 0.00 0.00 0.00 70 1015.6
20260507093041 5 61 0.0 4.8 0.00 0.00 0.00 71 1015.4
20260507092531 5 71 1.6 4.8 0.00 0.00 0.00 71 1015.4
20260507092029 5 0 0.0 6.4 0.00 0.00 0.00 72 1015.4
20260507091543 5 44 1.6 6.4 0.00 0.00 0.00 71 1015.2
20260507091031 5 0 0.0 6.4 0.00 0.00 0.00 71 1015.2
20260507090530 5 0 0.0 9.7 0.00 0.00 0.00 72 1015.2
20260507090045 5 14 1.6 9.7 0.00 0.00 0.00 71 1015.3
20260507085531 5 0 3.2 11.3 0.00 0.00 0.00 70 1015.2
20260507085030 5 23 3.2 11.3 0.00 0.00 0.00 70 1015.2
20260507084546 6 359 0.0 4.8 0.00 0.00 0.00 71 1015.2
20260507084030 5 0 0.0 4.8 0.00 0.00 0.00 71 1015.1
20260507083532 6 0 0.0 6.4 0.00 0.00 0.00 68 1015.2
20260507083041 6 98 1.6 6.4 0.00 0.00 0.00 68 1015.0
20260507082529 6 30 1.6 6.4 0.00 0.00 0.00 68 1015.0
20260507082028 6 58 3.2 6.4 0.00 0.00 0.00 68 1014.9
20260507081553 6 46 3.2 8.0 0.00 0.00 0.00 67 1014.9
20260507081030 6 125 1.6 9.7 0.00 0.00 0.00 69 1014.9
20260507080530 6 79 1.6 9.7 0.00 0.00 0.00 69 1014.8
20260507080044 6 60 1.6 4.8 0.00 0.00 0.00 68 1014.7
20260507075531 6 51 0.0 6.4 0.00 0.00 0.00 69 1014.8
20260507075030 6 109 1.6 6.4 0.00 0.00 0.00 68 1014.6
20260507074545 6 119 1.6 6.4 0.00 0.00 0.00 68 1014.6
20260507074032 5 246 3.2 8.0 0.00 0.00 0.00 69 1014.6
20260507073530 5 96 1.6 8.0 0.00 0.00 0.00 68 1014.5
20260507073042 6 38 1.6 6.4 0.00 0.00 0.00 71 1014.5
20260507072532 5 349 1.6 6.4 0.00 0.00 0.00 71 1014.6
20260507072033 5 108 1.6 6.4 0.00 0.00 0.00 68 1014.5
20260507071543 5 19 1.6 6.4 0.00 0.00 0.00 69 1014.5
20260507071033 5 0 1.6 6.4 0.00 0.00 0.00 68 1014.5
20260507070529 5 0 1.6 8.0 0.00 0.00 0.00 63 1014.5
20260507070045 5 0 3.2 8.0 0.00 0.00 0.00 63 1014.4
20260507065532 5 122 1.6 8.0 0.00 0.00 0.00 64 1014.4
20260507065031 5 126 1.6 8.0 0.00 0.00 0.00 64 1014.2
20260507064541 4 135 1.6 11.3 0.00 0.00 0.00 66 1014.3
20260507064029 4 104 4.8 11.3 0.00 0.00 0.00 65 1014.3
20260507063531 4 163 3.2 9.7 0.00 0.00 0.00 65 1014.3
20260507063043 4 126 4.8 9.7 0.00 0.00 0.00 66 1014.4
20260507062531 4 259 1.6 11.3 0.00 0.00 0.00 67 1014.2
20260507062032 3 150 4.8 12.9 0.00 0.00 0.00 68 1014.2
20260507061544 3 79 4.8 12.9 0.00 0.00 0.00 67 1014.2
20260507061028 3 117 3.2 9.7 0.00 0.00 0.00 69 1014.1
20260507060530 3 134 1.6 11.3 0.00 0.00 0.00 70 1014.1
20260507060044 3 145 6.4 11.3 0.00 0.00 0.00 70 1014.2
20260507055531 3 129 4.8 11.3 0.00 0.00 0.00 70 1014.0
20260507055031 3 157 3.2 9.7 0.00 0.00 0.00 69 1014.1
20260507054541 3 152 4.8 11.3 0.00 0.00 0.00 70 1014.0
20260507054030 3 155 3.2 11.3 0.00 0.00 0.00 72 1013.9
20260507053531 3 129 4.8 11.3 0.00 0.00 0.00 71 1014.0
20260507053041 3 136 4.8 11.3 0.00 0.00 0.00 71 1013.9
20260507052530 3 101 6.4 11.3 0.00 0.00 0.00 71 1013.9
20260507052031 3 236 3.2 6.4 0.00 0.00 0.00 74 1013.9
20260507051541 2 152 1.6 6.4 0.00 0.00 0.00 75 1013.7
20260507051030 2 0 1.6 4.8 0.00 0.00 0.00 77 1013.6
20260507050531 2 0 1.6 6.4 0.00 0.00 0.00 78 1013.6
20260507050047 1 130 1.6 6.4 0.00 0.00 0.00 78 1013.7
20260507045531 1 0 1.6 4.8 0.00 0.00 0.00 79 1013.6
20260507045028 1 0 0.0 3.2 0.00 0.00 0.00 80 1013.6
20260507044539 1 111 0.0 4.8 0.00 0.00 0.00 80 1013.5
20260507044028 1 0 1.6 4.8 0.00 0.00 0.00 80 1013.6
20260507043531 2 129 0.0 6.4 0.00 0.00 0.00 80 1013.5
20260507043055 2 220 1.6 6.4 0.00 0.00 0.00 79 1013.5
20260507042530 2 220 1.6 6.4 0.00 0.00 0.00 79 1013.4
20260507042029 2 148 1.6 6.4 0.00 0.00 0.00 78 1013.3
20260507041540 2 127 3.2 6.4 0.00 0.00 0.00 78 1013.4
20260507041030 2 158 1.6 4.8 0.00 0.00 0.00 78 1013.3
20260507040531 2 141 1.6 3.2 0.00 0.00 0.00 79 1013.4
20260507040041 2 0 0.0 3.2 0.00 0.00 0.00 81 1013.4
20260507035531 1 0 0.0 3.2 0.00 0.00 0.00 83 1013.3
20260507035030 1 0 0.0 3.2 0.00 0.00 0.00 83 1013.4
20260507034542 1 0 0.0 4.8 0.00 0.00 0.00 84 1013.3
20260507034032 1 144 0.0 4.8 0.00 0.00 0.00 85 1013.3
20260507033529 0 114 1.6 6.4 0.00 0.00 0.00 85 1013.2
20260507033043 0 185 1.6 6.4 0.00 0.00 0.00 86 1013.2
20260507032533 0 146 1.6 4.8 0.00 0.00 0.00 87 1013.2
20260507032032 0 141 1.6 4.8 0.00 0.00 0.00 88 1013.2
20260507031548 0 142 1.6 4.8 0.00 0.00 0.00 89 1013.3
20260507031033 0 254 0.0 4.8 0.00 0.00 0.00 90 1013.1
20260507030533 0 13 1.6 4.8 0.00 0.00 0.00 90 1013.2
20260507030042 0 139 1.6 6.4 0.00 0.00 0.00 90 1013.2
20260507025530 0 179 1.6 6.4 0.00 0.00 0.00 90 1013.1
20260507025035 0 0 0.0 4.8 0.00 0.00 0.00 90 1013.2
20260507024552 0 132 1.6 6.4 0.00 0.00 0.00 90 1013.2
20260507024034 0 127 1.6 6.4 0.00 0.00 0.00 90 1013.0
20260507023533 0 138 1.6 6.4 0.00 0.00 0.00 90 1013.1
20260507023052 0 212 0.0 6.4 0.00 0.00 0.00 90 1013.1
20260507022531 0 167 1.6 6.4 0.00 0.00 0.00 90 1013.1
20260507022035 0 136 1.6 4.8 0.00 0.00 0.00 91 1013.1
20260507021543 0 129 1.6 6.4 0.00 0.00 0.00 91 1013.0
20260507021033 0 0 1.6 6.4 0.00 0.00 0.00 91 1013.0
20260507020531 0 0 1.6 6.4 0.00 0.00 0.00 92 1013.0
20260507020057 0 169 1.6 6.4 0.00 0.00 0.00 92 1013.0
20260507015531 0 157 1.6 8.0 0.00 0.00 0.00 92 1013.1
20260507015031 0 164 1.6 8.0 0.00 0.00 0.00 92 1013.1
20260507014541 0 147 1.6 4.8 0.00 0.00 0.00 92 1013.1
20260507014031 0 245 0.0 4.8 0.00 0.00 0.00 92 1013.1
20260507013530 0 186 1.6 4.8 0.00 0.00 0.00 91 1013.1
20260507013047 0 143 1.6 4.8 0.00 0.00 0.00 92 1013.0
20260507012535 0 151 1.6 3.2 0.00 0.00 0.00 92 1013.0
20260507012031 0 151 1.6 4.8 0.00 0.00 0.00 92 1012.9
20260507011547 0 137 0.0 6.4 0.00 0.00 0.00 91 1012.8
20260507011031 0 141 1.6 6.4 0.00 0.00 0.00 91 1012.9
20260507010530 0 154 0.0 4.8 0.00 0.00 0.00 91 1012.9
20260507010044 0 138 1.6 4.8 0.00 0.00 0.00 91 1012.9
20260507005532 0 141 1.6 4.8 0.00 0.00 0.00 91 1013.0
20260507005031 0 128 0.0 9.7 0.00 0.00 0.00 91 1012.9
20260507004544 0 149 1.6 9.7 0.00 0.00 0.00 91 1012.9
20260507004031 0 160 1.6 8.0 0.00 0.00 0.00 91 1012.9
20260507003532 0 159 3.2 8.0 0.00 0.00 0.00 92 1012.9
20260507003049 0 166 1.6 6.4 0.00 0.00 0.00 92 1012.9
20260507002530 0 152 1.6 6.4 0.00 0.00 0.00 92 1012.8
20260507002031 0 146 0.0 3.2 0.00 0.00 0.00 92 1012.8
20260507001606 0 224 0.0 4.8 0.00 0.00 0.00 92 1012.8
20260507001035 0 0 0.0 4.8 0.00 0.00 0.00 92 1012.8
20260507000530 0 140 0.0 1.6 0.00 0.00 0.00 92 1012.8
20260507000043 0 0 0.0 3.2 0.00 0.00 0.00 92 1012.8
20260506235534 0 0 0.0 3.2 0.00 0.00 0.00 92 1012.8
20260506235031 0 0 0.0 4.8 0.00 0.00 0.00 92 1012.8
20260506234550 0 0 0.0 4.8 0.00 0.00 0.00 92 1012.8
20260506234032 0 0 0.0 6.4 0.00 0.00 0.00 92 1012.7
20260506233532 0 0 0.0 6.4 0.00 0.00 0.00 93 1012.7
20260506233043 0 151 1.6 8.0 0.00 0.00 0.00 93 1012.6
20260506232531 0 248 0.0 8.0 0.00 0.00 0.00 92 1012.6
20260506232031 0 148 0.0 6.4 0.00 0.00 0.00 93 1012.5
20260506231543 0 249 0.0 6.4 0.00 0.00 0.00 93 1012.5
20260506231029 0 201 0.0 3.2 0.00 0.00 0.00 92 1012.4
20260506230532 0 131 1.6 3.2 0.00 0.00 0.00 93 1012.5
20260506230053 0 200 0.0 4.8 0.00 0.00 0.00 93 1012.6
20260506225530 0 181 0.0 4.8 0.00 0.00 0.00 92 1012.7
20260506225029 0 150 1.6 3.2 0.00 0.00 0.00 92 1012.7
20260506224544 0 0 0.0 4.8 0.00 0.00 0.00 92 1012.7
20260506224029 0 0 0.0 4.8 0.00 0.00 0.00 92 1012.6
20260506223529 0 130 0.0 4.8 0.00 0.00 0.00 92 1012.7
20260506223041 0 209 1.6 3.2 0.00 0.00 0.00 92 1012.6
20260506222532 0 203 0.0 6.4 0.00 0.00 0.00 91 1012.6
20260506222030 0 236 1.6 6.4 0.00 0.00 0.00 92 1012.7
20260506221551 0 165 1.6 4.8 0.00 0.00 0.00 91 1012.7
20260506221031 0 209 0.0 4.8 0.00 0.00 0.00 91 1012.6
20260506220533 0 158 0.0 1.6 0.00 0.00 0.00 91 1012.6
20260506220043 0 162 0.0 0.0 0.00 0.00 0.00 91 1012.7
20260506215535 0 0 0.0 4.8 0.00 0.00 0.00 90 1012.7
20260506215030 0 0 0.0 4.8 0.00 0.00 0.00 90 1012.7
20260506214541 0 148 0.0 4.8 0.00 0.00 0.00 90 1012.6
20260506214033 1 0 0.0 4.8 0.00 0.00 0.00 90 1012.7
20260506213531 1 151 0.0 4.8 0.00 0.00 0.00 90 1012.7
20260506213040 1 0 0.0 4.8 0.00 0.00 0.00 90 1012.6
20260506212530 1 157 1.6 4.8 0.00 0.00 0.00 90 1012.6
20260506212032 1 113 1.6 4.8 0.00 0.00 0.00 90 1012.5
20260506210532 1 147 1.6 8.0 0.00 0.00 0.00 90 1012.4
20260506210054 1 146 1.6 4.8 0.00 0.00 0.00 89 1012.4
20260506205531 1 153 1.6 4.8 0.00 0.00 0.00 89 1012.2
20260506205030 1 192 1.6 4.8 0.00 0.00 0.00 89 1012.2
20260506204547 1 221 0.0 6.4 0.00 0.00 0.00 88 1012.2
20260506204030 1 285 0.0 6.4 0.00 0.00 0.00 88 1012.3
20260506203530 1 177 3.2 6.4 0.00 0.00 0.00 88 1012.3
20260506203043 1 203 1.6 6.4 0.00 0.00 0.00 88 1012.2
20260506202534 1 201 1.6 8.0 0.00 0.00 0.00 88 1012.3
20260506202032 1 182 1.6 8.0 0.00 0.00 0.00 88 1012.3
20260506201541 1 146 1.6 8.0 0.00 0.00 0.00 87 1012.3
20260506201032 1 198 1.6 6.4 0.00 0.00 0.00 87 1012.3
20260506200530 1 146 1.6 6.4 0.00 0.00 0.00 87 1012.3
20260506200040 1 134 0.0 4.8 0.00 0.00 0.00 87 1012.3
20260506195530 1 212 1.6 4.8 0.00 0.00 0.00 87 1012.3
20260506195030 1 143 0.0 4.8 0.00 0.00 0.00 86 1012.2
20260506194545 2 0 0.0 6.4 0.00 0.00 0.00 86 1012.1
20260506194031 2 0 1.6 8.0 0.00 0.00 0.00 85 1012.2
20260506193531 2 165 1.6 8.0 0.00 0.00 0.00 85 1012.3
20260506193048 2 159 0.0 4.8 0.00 0.00 0.00 85 1012.2
20260506192533 2 163 1.6 6.4 0.00 0.00 0.00 84 1012.2
20260506192028 2 0 1.6 6.4 0.00 0.00 0.00 84 1012.3
20260506191542 2 161 3.2 6.4 0.00 0.00 0.00 84 1012.1
20260506191032 2 207 1.6 4.8 0.00 0.00 0.00 83 1012.2
20260506190532 2 152 1.6 4.8 0.00 0.00 0.00 82 1012.2
20260506190040 2 218 1.6 4.8 0.00 0.00 0.00 81 1012.1
20260506185531 3 117 1.6 4.8 0.00 0.00 0.00 81 1012.1
20260506185031 3 160 0.0 4.8 0.00 0.00 0.00 80 1011.9
20260506184549 3 160 0.0 6.4 0.00 0.00 0.00 80 1011.9
20260506184033 3 146 1.6 8.0 0.00 0.00 0.00 80 1011.8
20260506183530 3 183 1.6 8.0 0.00 0.00 0.00 80 1011.8
20260506183045 3 119 3.2 8.0 0.00 0.00 0.00 80 1011.8
20260506182530 3 64 0.0 4.8 0.00 0.00 0.00 79 1011.8
20260506182030 3 221 0.0 4.8 0.00 0.00 0.00 79 1011.7
20260506181549 3 169 0.0 4.8 0.00 0.00 0.00 79 1011.5
20260506181033 3 0 0.0 4.8 0.00 0.00 0.00 80 1011.5
20260506180533 3 0 0.0 11.3 0.00 0.00 0.00 80 1011.5
20260506180040 3 153 3.2 14.5 0.00 0.00 0.00 80 1011.4
20260506175533 3 165 3.2 14.5 0.00 0.00 0.00 79 1011.4
20260506175031 4 228 3.2 14.5 0.00 0.00 0.00 76 1011.5
20260506174541 5 141 3.2 9.7 0.00 0.00 0.00 73 1011.5
20260506174031 5 166 1.6 8.0 0.00 0.00 0.00 64 1011.5
20260506173530 5 175 0.0 8.0 0.00 0.00 0.00 63 1011.3
20260506173046 5 111 3.2 8.0 0.00 0.00 0.00 63 1011.3
20260506172530 5 355 0.0 6.4 0.00 0.00 0.00 63 1011.2
20260506172030 5 127 1.6 6.4 0.00 0.00 0.00 63 1011.2
20260506171545 5 151 3.2 8.0 0.00 0.00 0.00 64 1011.1
20260506171030 5 84 1.6 8.0 0.00 0.00 0.00 67 1011.0
20260506170531 6 229 1.6 4.8 0.00 0.00 0.00 67 1010.8
20260506170052 5 0 0.0 4.8 0.00 0.00 0.00 69 1010.8
20260506165532 5 155 1.6 4.8 0.00 0.03 0.00 68 1010.8
20260506165030 5 0 1.6 17.7 0.00 0.03 0.00 68 1010.8
20260506164554 5 134 4.8 17.7 0.00 0.03 0.00 67 1010.8
20260506164031 5 162 3.2 14.5 0.00 0.03 0.00 67 1010.8
20260506163530 5 97 4.8 14.5 0.00 0.03 0.00 66 1010.9
20260506163045 5 49 3.2 11.3 0.00 0.03 0.00 67 1011.0
20260506162530 5 108 3.2 8.0 0.00 0.03 0.00 66 1011.0
20260506162031 5 302 1.6 11.3 0.00 0.03 0.00 66 1010.9
20260506161540 5 0 1.6 11.3 0.00 0.03 0.00 66 1011.0
20260506161029 5 0 1.6 14.5 0.00 0.03 0.00 66 1011.0
20260506160531 6 41 3.2 14.5 0.00 0.03 0.00 64 1011.0
20260506160055 6 307 3.2 9.7 0.00 0.03 0.00 64 1011.0
20260506155532 6 345 1.6 9.7 0.00 0.03 0.00 65 1011.0
20260506155030 6 288 1.6 12.9 0.00 0.03 0.00 64 1010.9
20260506154544 6 155 1.6 12.9 0.00 0.03 0.00 63 1011.0
20260506154030 6 229 3.2 9.7 0.00 0.03 0.00 62 1010.9
20260506153530 7 120 3.2 9.7 0.00 0.03 0.00 62 1011.0
20260506153043 7 312 3.2 8.0 0.00 0.03 0.00 60 1010.9
20260506152530 7 303 1.6 11.3 0.00 0.03 0.00 59 1010.9
20260506152029 7 5 1.6 11.3 0.00 0.03 0.00 59 1011.0
20260506151544 7 213 3.2 11.3 0.00 0.03 0.00 59 1010.9
20260506151032 7 77 1.6 8.0 0.00 0.03 0.00 57 1010.9
20260506150530 7 0 0.0 6.4 0.00 0.03 0.00 59 1010.8
20260506150049 7 323 1.6 12.9 0.00 0.03 0.00 59 1011.0
20260506145530 7 0 1.6 12.9 0.00 0.05 0.00 61 1011.0
20260506145030 7 314 1.6 8.0 0.00 0.05 0.00 61 1011.0
20260506144542 7 44 1.6 8.0 0.00 0.05 0.00 61 1010.9
20260506144028 7 128 1.6 8.0 0.00 0.05 0.00 61 1011.0
20260506143531 7 337 3.2 8.0 0.00 0.05 0.00 61 1010.9
20260506143042 7 132 1.6 8.0 0.00 0.05 0.00 65 1010.9
20260506142530 7 212 3.2 8.0 0.00 0.05 0.00 65 1011.0